Weather History for Dubuque, IA

Change the Weather History Date:

Wednesday, February 26, 2014

  Actual Average Record
Temperature  
Mean Temperature 3 °F 28 °F  
Max Temperature 17 °F 36 °F 62 °F (1896)
Min Temperature -12 °F 20 °F -12 °F (2014)
Degree Days  
Heating Degree Days 62 37  
Month to date heating degree days 1415 1082  
Since 1 July heating degree days 6257 5319  
Cooling Degree Days 0 0  
Month to date cooling degree days 0 0  
Year to date cooling degree days 0 0  
Moisture  
Dew Point -5 °F    
Average Humidity 69    
Maximum Humidity 79    
Minimum Humidity 58    
Precipitation  
Precipitation T in 0.06 in 1.31 in (1912)
Month to date precipitation 1.43 1.32  
Year to date precipitation 2.38 2.49  
Snow  
Snow T in 0.30 in - ()
Month to date snowfall 13.9 8.5  
Since 1 July snowfall 50.3 33.1  
Snow Depth 4.00 in    
Sea Level Pressure  
Sea Level Pressure 30.02 in    
Wind  
Wind Speed 17 mph (West)    
Max Wind Speed 39 mph    
Max Gust Speed 50 mph    
Visibility 10 miles    
Events      
T = Trace of Precipitation, MM = Missing Value Source: NWS Daily Summary

Daily Weather History Graph

Daily Weather History Graph

Search for Another Location

Airport:

Trip Planner

Search our weather history database for the weather conditions in past years. The results will help you decide how hot, cold, wet, or windy it might be!

Date:

Astronomy

Feb. 26, 2014 Rise Set
Actual Time 6:42 AM CST 5:49 PM CST
Civil Twilight 6:14 AM CST 6:17 PM CST
Nautical Twilight 5:42 AM CST 6:49 PM CST
Astronomical Twilight 5:09 AM CST 7:22 PM CST
Moon 4:31 AM CST (2/26) 3:01 PM CST (2/26)
Length of Visible Light 12h 02m
Length of Day
11h 06m
Waning Crescent, 10% of the Moon is Illuminated
Feb 26
Waning Crescent
Mar 1
New
Mar 8
First Quarter
Mar 16
Full
Mar 23
Last Quarter

Hourly Weather History & Observations

Time (CST) Temp. Windchill Dew Point Humidity Pressure Visibility Wind Dir Wind Speed Gust Speed Precip Events Conditions
12:53 AM -2.9 °F -19.8 °F -9.9 °F 72% 30.36 in 10.0 mi WNW 10.4 mph - N/A   Clear
1:53 AM -5.1 °F -25.9 °F -11.0 °F 76% 30.36 in 10.0 mi WNW 15.0 mph - N/A   Clear
2:53 AM -6.0 °F -23.6 °F -11.9 °F 75% 30.35 in 10.0 mi WNW 10.4 mph - N/A   Clear
3:53 AM -7.1 °F -23.9 °F -13.0 °F 75% 30.33 in 10.0 mi NW 9.2 mph - N/A   Clear
4:53 AM -9.9 °F -21.5 °F -15.0 °F 78% 30.32 in 10.0 mi SW 4.6 mph - N/A   Clear
5:53 AM -11.9 °F -28.7 °F -16.1 °F 82% 30.32 in 10.0 mi SW 8.1 mph - N/A   Clear
6:53 AM -11.0 °F -24.6 °F -16.1 °F 78% 30.30 in 10.0 mi WSW 5.8 mph - N/A   Clear
7:53 AM -9.0 °F -22.3 °F -16.1 °F 71% 30.27 in 10.0 mi WSW 5.8 mph - N/A   Clear
8:53 AM -7.1 °F -23.9 °F -15.0 °F 68% 30.25 in 10.0 mi West 9.2 mph - N/A   Clear
9:53 AM -5.1 °F -24.3 °F -11.9 °F 72% 30.22 in 10.0 mi SW 12.7 mph - N/A   Clear
10:53 AM -0.9 °F -22.4 °F -9.9 °F 66% 30.18 in 10.0 mi WSW 18.4 mph - N/A   Clear
11:53 AM 1.0 °F -20.9 °F -9.0 °F 63% 30.13 in 10.0 mi WSW 20.7 mph - N/A   Clear
12:53 PM 5.0 °F -16.7 °F -6.0 °F 61% 30.06 in 10.0 mi SW 23.0 mph - N/A   Clear
1:53 PM 7.0 °F -14.0 °F -2.9 °F 64% 30.00 in 10.0 mi WSW 23.0 mph 29.9 mph N/A   Clear
2:53 PM 9.0 °F -13.0 °F -2.0 °F 61% 29.94 in 10.0 mi WSW 27.6 mph 34.5 mph N/A   Clear
3:53 PM 10.9 °F -10.3 °F -0.9 °F 59% 29.87 in 10.0 mi WSW 27.6 mph 34.5 mph N/A   Scattered Clouds
4:53 PM 10.9 °F -8.8 °F -0.0 °F 61% 29.82 in 10.0 mi SW 23.0 mph - N/A   Clear
5:53 PM 10.9 °F -8.3 °F 1.0 °F 64% 29.80 in 10.0 mi WSW 21.9 mph - N/A   Clear
6:53 PM 10.9 °F -6.5 °F 3.0 °F 70% 29.79 in 10.0 mi SW 17.3 mph - N/A   Partly Cloudy
7:53 PM 12.9 °F -3.9 °F 5.0 °F 71% 29.77 in 10.0 mi WSW 17.3 mph - N/A   Partly Cloudy
8:53 PM 16.0 °F -1.7 °F 8.1 °F 71% 29.76 in 10.0 mi West 21.9 mph 29.9 mph N/A   Clear
9:31 PM 16.0 °F -2.8 °F 8.1 °F 71% 29.68 in 10.0 mi West 25.3 mph 33.4 mph N/A   Mostly Cloudy
9:53 PM 16.0 °F -2.5 °F 8.1 °F 71% 29.76 in 10.0 mi WNW 24.2 mph 36.8 mph N/A   Scattered Clouds
10:16 PM 16.0 °F -4.1 °F 8.1 °F 71% 29.69 in 10.0 mi WNW 29.9 mph 34.5 mph N/A   Mostly Cloudy
10:41 PM 12.9 °F -8.9 °F -0.0 °F 56% 29.71 in 6.0 mi NW 32.2 mph 47.2 mph 0.00 in   Haze
10:53 PM 12.0 °F -9.8 °F -0.9 °F 56% 29.79 in 10.0 mi WNW 31.1 mph 41.4 mph 0.00 in   Clear
11:53 PM 9.0 °F -12.2 °F -5.1 °F 53% 29.82 in 10.0 mi NW 25.3 mph 38.0 mph N/A   Clear